Погода в Тугегарао

Филиппины     17°37′13″N   121°43′27″E
темп.,
°C
ветер,
м/с
пор.,
м/с
влажн.,
%
обл.,
%
осадки,
мм/ч
давл.,
гПа
погр.,
м
8 марта, пн
пн823:00+22з008180 0.0 101728
02:00+21зсз018784 0.0 101543
05:00+21с008731 0.0 101628
08:00+23сз118123 0.0 1018283
11:00+28зсз11610 0.0 1017967
14:00+30сз12544 0.1 10151483
17:00+28ссз356759 0.1 1015346
20:00+23с227830 0.1 101656
9 марта, вт
вт923:00+21ссз12850 0.0 101756
02:00+20с12860 0.0 101635
05:00+20ссз01910 0.0 101623
08:00+23сз11800 0.0 1018235
11:00+28зсз21611 0.0 10171123
14:00+30с115635 0.1 10141433
17:00+29ссз226543 0.1 1014550
20:00+22св117623 0.1 101738
10 марта, ср
ср1023:00+21сз118628 0.0 101848
02:00+20ссз119014 0.0 101627
05:00+20с12890 0.0 101626
08:00+23ссз23827 0.0 1018273
11:00+28з21610 0.1 10171207
14:00+29сз115740 0.2 10151309
17:00+26ссз457674 0.9 1015292
20:00+23сз118641 1.5 101746
11 марта, чт
чт1123:00+21зсз11921 0.4 101843
02:00+22юз129347 1.2 101680
05:00+22юз119296 1.1 101643
08:00+23в018897 1.2 1018115
11:00+27ссз116983 2.0 1017635
14:00+29ссз226445 3.3 1014972
17:00+26сз358083 0.9 1014193
20:00+22вюв118263 0.9 101633
12 марта, пт
пт1223:00+21с11883 0.0 101733
02:00+20с119051 0.0 101525
05:00+20с129197 0.0 101524
08:00+23ссз118269 0.0 1017260
11:00+28зсз226444 0.1 1016847
14:00+30сз225746 0.2 10131396
17:00+28зсз226952 0.7 1013446
20:00+23вюв128475 2.9 101537